Wind_Speed
10 11 11 12 12 12 11 11 11 11 11 11 11 11 11 10 10 10 10 9 9 9 8 8 8 7 7 7 6 5 3 3 3 2 2 2 2 3 4 5 5 7 8 8 9 10 11 12 13 14 15 15 16 16 17 17 17 18 19 19 19 18 18 18 17 17 16 15 15 15 15 14 14 14 14 14 13 13 12 11 11 10 10 11 12
8 9 10 11 11 12 12 12 12 11 11 11 11 11 11 11 11 11 11 11 10 10 9 9 8 8 8 7 6 5 4 4 4 3 3 3 4 5 5 6 7 8 9 10 11 12 13 14 15 16 17 17 17 17 17 18 18 19 19 20 20 19 19 19 18 17 17 16 16 16 16 16 15 15 16 15 14 13 12 12 11 10 10 10 12
8 8 8 9 9 10 11 12 12 12 12 12 11 12 12 12 12 12 12 12 11 10 10 9 9 9 8 7 7 6 5 5 5 5 5 6 6 7 8 8 9 9 10 12 13 14 15 17 17 17 18 18 18 18 19 19 19 19 19 20 20 20 20 19 19 18 18 18 17 17 17 17 16 16 17 16 16 14 12 12 11 10 10 10 11
11 10 9 8 7 8 9 10 11 12 12 13 13 13 13 13 13 13 13 12 12 11 10 10 9 9 8 8 8 7 7 7 7 7 8 8 9 10 10 11 12 12 13 14 15 16 17 18 18 18 18 18 18 19 19 19 19 19 20 20 20 20 20 20 19 19 18 18 18 18 18 18 17 17 17 17 17 16 14 13 12 11 10 10 10
12 12 11 10 9 9 9 9 9 10 11 12 13 14 14 14 14 14 13 13 12 11 11 10 10 9 9 9 9 8 8 9 9 10 10 11 12 12 13 14 14 15 16 16 17 17 18 18 17 17 17 17 18 18 19 19 19 19 20 20 20 20 20 20 20 19 19 19 19 19 19 19 18 18 18 17 17 16 15 15 14 12 11 11 11
13 13 13 12 12 11 10 9 9 10 11 11 12 13 13 14 14 15 14 14 13 12 11 11 10 10 10 10 10 10 10 11 11 12 12 13 14 14 15 16 16 17 17 16 16 16 16 16 15 15 16 17 18 18 18 18 18 19 19 20 20 20 21 20 20 20 20 20 20 20 20 20 19 19 20 19 18 17 16 15 15 14 12 12 12
15 15 14 13 13 13 12 12 12 11 12 12 11 12 12 13 14 15 15 14 14 13 13 12 12 12 12 12 12 12 12 13 13 14 14 14 15 15 16 16 16 16 16 15 15 15 15 15 15 15 15 16 17 17 18 18 18 19 19 20 20 20 20 21 20 20 20 20 20 21 21 21 20 20 20 21 20 19 17 16 15 15 14 13 13
17 16 16 15 15 14 14 14 13 13 13 12 12 13 13 13 14 14 15 14 14 14 14 14 14 13 13 13 13 13 13 14 14 15 15 15 15 15 15 14 13 13 14 14 14 14 14 14 14 14 14 15 15 16 17 17 18 18 19 19 19 20 20 20 20 21 21 21 21 21 21 21 21 21 21 22 22 21 19 17 16 16 16 15 15
19 18 17 17 16 16 16 16 16 16 14 13 14 16 15 14 14 14 14 15 15 15 14 14 14 14 14 13 13 13 14 15 15 15 15 14 14 14 13 12 11 12 12 13 13 14 15 15 15 14 14 14 15 16 16 17 17 18 18 19 19 19 20 20 20 21 22 22 22 22 22 22 22 23 23 23 23 23 22 20 18 17 16 16 16
19 19 19 19 19 18 18 18 18 17 16 16 16 17 16 15 15 15 15 15 15 15 15 15 15 14 14 14 14 14 15 16 16 15 14 14 13 12 11 11 10 11 12 12 14 15 15 15 15 15 15 16 17 17 17 17 17 18 18 19 19 20 20 20 20 21 23 23 23 23 22 23 23 24 24 24 24 25 24 23 21 19 18 16 16
20 20 20 20 21 20 20 19 18 18 17 17 17 17 17 17 17 17 16 15 15 15 16 16 16 15 15 15 14 15 16 16 16 15 14 13 12 12 11 10 11 12 13 14 14 15 15 16 16 16 17 19 19 20 20 20 20 20 20 20 20 21 21 21 21 22 23 24 25 25 24 24 25 25 26 26 25 25 25 25 23 22 21 18 17
17 18 19 21 22 21 21 19 19 18 17 17 18 18 18 18 18 18 17 16 15 16 17 17 16 16 15 15 14 15 15 16 15 14 13 12 12 11 11 11 12 13 14 15 15 16 17 17 18 19 20 21 22 22 22 22 23 23 24 24 24 23 23 22 23 23 24 25 25 26 26 26 26 26 27 27 27 27 26 26 25 24 23 21 20
14 16 18 19 20 20 20 20 19 18 17 18 18 18 18 19 19 19 18 17 17 17 17 17 16 16 15 14 14 15 15 15 15 14 13 12 12 11 12 12 12 14 15 16 17 18 19 20 21 22 23 24 24 24 24 25 25 26 26 27 27 26 26 26 25 25 26 26 26 27 27 27 27 27 27 27 28 28 28 28 27 26 26 25 24
12 14 17 17 17 17 17 18 18 18 18 18 18 17 18 19 19 20 20 20 19 18 18 17 17 16 15 15 15 15 16 15 15 14 14 13 12 12 13 13 13 14 16 17 18 20 21 21 22 23 24 25 25 26 27 28 28 28 28 28 28 28 28 29 28 27 27 27 27 28 28 28 27 27 27 27 28 28 29 29 28 28 27 27 28
12 9 12 14 15 16 15 15 15 16 16 16 15 16 17 18 19 20 21 20 20 19 19 19 18 17 15 15 16 16 16 16 15 15 14 13 13 14 14 15 16 17 18 19 20 21 22 22 22 23 24 25 26 28 29 30 31 31 30 30 30 29 28 29 30 30 28 27 27 28 28 28 28 28 28 27 28 29 29 29 29 28 28 28 29
10 7 10 12 13 15 14 13 13 13 13 12 12 13 14 15 17 18 19 20 19 19 19 20 19 18 17 17 17 17 17 16 16 16 15 14 14 15 16 17 18 19 20 21 22 24 24 23 22 23 25 26 27 29 30 32 32 32 32 32 31 30 29 29 31 32 30 28 28 28 27 27 27 28 28 28 28 29 29 29 29 29 28 28 28
10 8 11 12 13 14 13 12 12 12 11 10 10 10 11 12 13 14 16 16 17 19 20 21 21 20 20 19 19 18 17 17 16 16 15 14 14 15 17 18 19 20 21 22 22 24 24 23 23 24 26 27 29 31 31 32 33 33 33 32 30 29 29 28 28 29 29 29 28 28 28 27 27 27 28 28 28 29 30 30 30 29 28 27 27
14 13 13 14 15 14 12 11 11 12 12 11 10 10 10 10 11 12 13 14 16 19 21 22 22 22 21 21 20 19 18 17 17 16 15 14 15 16 17 19 19 20 20 21 22 23 23 23 23 24 27 28 30 32 32 31 33 35 34 32 30 28 28 26 25 25 26 28 27 27 27 27 27 28 28 28 29 30 30 31 30 29 28 27 26
17 17 16 14 14 13 11 12 12 13 13 12 12 11 10 9 10 11 12 13 16 18 19 20 21 22 22 21 20 18 18 17 17 16 16 15 16 17 18 19 20 21 21 22 23 23 23 22 22 25 28 29 30 33 33 32 34 36 34 32 30 27 26 26 26 25 26 27 27 27 27 27 28 28 29 28 29 30 30 30 29 28 28 27 27
19 20 18 15 13 12 12 13 14 15 14 14 13 12 11 10 10 11 12 14 14 15 17 18 19 20 20 20 18 17 17 17 16 16 16 17 17 18 19 21 22 22 22 23 23 24 24 23 24 26 28 28 30 34 35 33 34 35 33 30 28 26 25 26 27 27 27 27 27 27 27 28 28 29 29 29 29 29 29 28 28 28 28 28 28
21 20 20 19 17 14 14 15 17 17 16 15 14 14 13 11 10 11 13 14 14 14 15 16 17 17 17 17 17 16 17 16 16 17 17 18 19 19 21 23 23 23 23 23 23 24 26 27 26 27 28 29 30 33 34 32 31 34 33 29 27 26 26 26 27 28 28 28 27 26 27 28 28 28 29 29 28 29 28 28 28 29 29 29 29
22 21 21 22 21 19 18 18 19 19 17 16 16 15 15 12 11 11 12 14 15 15 15 15 15 15 15 16 16 16 16 16 16 17 18 19 20 20 22 23 23 24 24 25 25 25 27 28 26 27 29 30 31 32 32 28 27 31 32 29 29 29 29 28 28 27 27 28 28 28 27 29 29 28 29 29 30 31 31 29 29 30 31 30 30
24 23 23 24 24 24 21 19 20 20 18 18 17 17 16 14 12 11 11 13 15 14 15 15 14 15 15 15 15 16 17 17 17 17 19 21 22 21 22 23 23 24 25 27 26 25 26 28 28 30 31 32 32 33 32 27 24 28 32 32 32 32 33 32 31 28 26 27 30 30 28 28 29 30 31 32 33 33 31 29 30 32 33 31 30
25 23 24 24 24 24 20 17 19 21 20 19 19 19 18 17 13 11 11 13 14 13 14 14 14 15 15 15 15 16 17 17 18 19 20 22 22 20 20 22 24 25 26 27 26 25 26 29 32 34 34 33 32 31 30 28 26 29 34 35 36 35 35 35 33 29 27 28 30 30 29 29 29 30 32 33 33 31 30 30 32 33 33 32 30
26 22 23 24 23 22 17 14 18 23 22 21 21 21 20 19 15 11 12 13 13 13 14 14 15 15 15 15 16 17 18 18 19 20 21 22 21 18 18 22 25 26 26 27 25 25 26 29 32 34 33 31 27 24 21 19 24 30 35 37 39 38 37 36 34 31 30 31 30 30 30 30 29 30 31 32 31 30 30 32 33 33 34 32 31
25 23 25 25 23 22 19 17 19 24 23 21 22 22 21 20 16 13 13 13 14 15 15 16 16 16 16 16 17 17 17 18 18 18 19 20 20 17 17 22 26 28 28 28 26 26 26 28 30 31 31 30 28 24 19 20 24 30 34 37 39 40 38 37 35 33 32 32 32 32 32 32 31 31 31 31 31 31 32 33 35 35 35 34 33
26 25 26 25 24 23 22 21 22 24 24 21 22 22 22 21 18 15 14 14 15 17 17 17 17 16 15 15 15 15 16 16 16 17 18 19 19 19 20 23 27 30 31 31 30 28 27 28 28 29 31 30 28 27 28 31 32 33 34 36 38 39 38 37 36 34 33 33 33 33 33 33 33 32 31 31 32 32 33 35 36 38 39 38 37
29 28 26 26 26 25 24 24 24 25 24 22 22 22 22 21 20 17 15 15 17 18 17 18 17 15 14 14 15 16 16 17 17 18 19 20 20 21 23 26 28 31 32 33 32 31 30 30 29 29 30 28 25 25 27 32 33 33 34 35 37 38 36 35 35 33 33 33 33 33 34 35 34 32 31 32 32 33 34 35 38 39 41 41 42
33 30 29 28 28 27 27 26 26 26 24 23 23 23 23 23 21 19 16 16 17 17 17 17 16 15 15 15 16 16 16 17 17 18 19 21 21 22 25 27 29 32 34 34 34 33 32 32 31 29 29 29 27 26 26 28 30 32 33 33 36 37 35 34 34 33 33 34 34 34 35 36 35 33 32 32 33 34 35 37 39 39 40 41 44
37 34 32 31 30 29 29 27 28 28 26 24 23 23 23 24 22 19 17 16 15 15 15 16 16 16 16 16 16 16 16 17 18 19 20 21 22 24 26 29 31 33 35 36 36 35 34 34 33 31 30 31 31 29 27 28 30 32 33 33 36 38 35 34 35 34 34 35 36 36 36 37 36 34 34 34 34 36 37 39 40 40 41 43 45
40 37 35 34 32 31 30 28 29 29 27 26 24 24 24 24 22 19 18 17 15 14 15 17 17 17 16 16 17 17 18 19 20 22 23 24 25 27 29 31 33 35 38 38 38 37 35 35 34 32 30 32 33 31 30 31 32 33 33 34 37 38 36 35 35 35 35 36 37 36 36 37 36 35 35 35 35 38 40 41 41 41 43 45 44
38 39 39 36 33 32 31 29 29 29 28 27 25 25 25 23 20 18 18 18 16 16 18 19 19 18 17 18 18 19 19 21 23 24 26 27 28 29 32 34 36 38 41 42 41 39 37 35 34 32 31 32 32 30 31 33 32 33 34 36 38 38 36 35 35 35 36 37 36 36 36 36 36 36 37 37 36 38 40 40 39 40 41 42 41
37 40 41 38 33 32 31 30 30 29 28 28 26 25 24 21 19 18 19 18 18 19 20 21 19 18 18 20 20 21 22 24 26 27 29 30 30 31 34 36 39 41 44 45 44 41 37 35 33 31 31 32 30 29 31 33 33 33 35 37 38 37 35 35 35 36 37 37 36 35 34 35 36 37 39 39 39 40 40 39 39 40 41 41 42
41 41 40 37 32 31 32 31 30 30 30 30 28 26 24 22 20 19 19 18 19 20 22 22 21 20 21 23 23 24 25 26 28 30 31 33 33 34 36 39 42 44 46 46 44 40 37 35 32 31 31 32 31 30 31 32 32 34 37 38 38 36 35 35 35 36 36 36 35 33 32 36 38 39 40 41 41 42 42 43 44 44 45 45 45
43 41 37 32 29 30 31 31 31 31 32 31 30 28 26 24 21 21 20 19 20 22 24 25 25 24 25 26 27 28 28 30 31 33 34 36 36 37 39 42 44 46 48 46 41 37 34 33 32 31 31 32 32 31 31 32 33 36 38 38 37 36 35 35 36 36 36 36 34 33 34 38 40 41 42 42 42 44 45 46 47 47 48 47 47
44 41 34 28 26 29 31 32 32 33 33 33 32 30 28 25 24 23 22 22 23 24 26 29 29 29 28 28 29 30 31 33 35 36 37 38 39 40 42 43 46 49 49 44 38 34 32 31 31 31 31 32 32 30 30 32 35 36 37 36 34 34 34 35 36 36 35 35 34 34 37 40 41 41 41 42 43 43 45 47 48 49 49 50 50
45 41 32 26 28 32 33 33 34 34 35 35 33 32 30 28 27 26 25 25 26 27 29 31 32 33 31 30 31 32 33 35 37 39 40 41 43 43 44 45 48 51 49 42 36 33 31 29 30 31 30 31 31 30 30 32 34 34 33 31 31 32 34 35 37 37 36 35 35 37 40 42 41 39 39 40 42 43 45 49 50 50 50 50 51
44 39 33 30 31 34 34 34 34 36 36 35 35 34 32 30 30 28 28 29 29 31 32 33 35 36 35 34 33 34 35 37 40 41 43 46 47 46 46 48 50 52 48 41 37 34 31 29 30 31 31 30 30 30 30 30 31 30 28 27 28 31 34 36 38 38 37 35 36 39 42 42 40 38 39 41 43 45 48 50 50 49 49 49 49
42 38 36 35 35 36 35 35 35 36 37 37 38 36 34 33 33 32 31 32 33 34 35 36 37 39 39 37 35 36 38 39 41 43 46 49 49 47 48 51 53 51 46 40 37 35 32 31 31 31 32 32 31 31 30 27 27 26 26 27 29 32 35 37 38 38 37 36 38 40 41 41 40 39 40 42 45 48 50 50 48 48 48 48 48
42 41 39 39 40 39 37 36 36 37 38 39 39 37 36 37 37 36 36 36 37 38 38 39 40 42 42 41 39 39 40 41 43 46 48 49 48 47 50 53 53 49 44 39 37 36 35 34 33 33 33 33 32 31 29 26 25 27 29 29 30 33 36 38 38 38 39 39 39 39 39 40 41 41 43 46 49 50 50 48 48 48 48 47 46
45 45 43 43 42 40 39 39 39 39 39 40 40 40 40 40 40 40 40 40 40 41 41 42 43 44 44 43 42 42 43 44 45 48 48 48 49 50 52 54 52 47 42 38 37 37 37 36 35 35 35 35 33 32 30 26 27 30 32 31 31 33 35 38 39 40 41 40 39 39 39 40 42 44 47 50 51 50 49 48 48 48 47 46 45
47 47 47 46 45 43 42 41 40 40 41 42 42 43 43 42 43 44 44 43 44 45 45 46 46 46 46 44 43 44 46 47 48 48 48 49 51 52 53 52 48 44 40 37 37 38 38 36 36 36 36 37 35 32 29 27 28 31 32 32 33 34 35 37 39 39 40 40 41 41 41 42 45 48 50 51 50 49 48 48 48 48 46 45 46
45 47 49 49 48 46 44 43 43 43 42 43 44 46 46 45 45 45 46 47 48 49 49 49 49 49 46 44 44 46 48 49 49 49 49 50 52 53 52 49 45 42 39 39 39 40 38 37 37 36 37 39 37 30 26 27 29 31 32 33 35 35 36 37 37 37 39 41 41 42 43 46 48 50 50 50 49 48 49 49 49 47 46 47 48
43 47 50 51 49 47 45 45 45 44 43 43 44 46 47 47 48 48 49 51 52 53 54 54 53 52 47 43 44 47 49 49 49 49 50 52 54 53 50 47 44 42 41 41 41 40 39 38 38 37 38 39 36 29 26 29 31 33 33 33 35 36 36 36 36 37 39 41 43 45 47 49 50 49 48 48 48 48 50 50 48 48 48 48 48
41 45 48 49 48 47 46 44 43 42 42 43 44 45 47 49 50 51 52 54 55 57 57 56 56 53 46 42 44 47 48 48 49 50 51 53 54 52 48 46 44 42 42 42 41 41 40 39 39 39 39 38 34 30 30 32 33 34 34 33 35 37 37 37 39 40 43 44 47 49 50 50 49 47 47 47 48 49 50 49 49 48 48 47 46
39 42 45 47 48 47 45 44 43 43 43 43 44 46 47 49 51 52 54 56 58 59 57 56 56 53 47 44 45 46 47 47 49 50 51 52 52 50 48 45 44 43 43 43 41 41 41 41 41 40 39 37 34 32 32 33 35 35 34 33 35 37 39 41 42 44 46 47 49 50 49 48 47 46 46 47 49 49 49 49 49 48 46 46 47
39 41 44 46 47 47 47 46 45 45 45 44 45 46 48 50 52 53 55 57 58 58 57 56 55 52 47 45 45 46 47 48 49 50 51 51 51 50 47 46 45 44 43 41 40 41 43 42 42 41 39 36 34 33 34 35 36 36 35 34 35 37 40 42 44 45 47 48 48 48 47 45 45 46 47 49 49 50 49 49 48 47 47 47 46
39 40 43 45 46 47 48 47 47 47 46 46 46 48 50 52 53 53 54 56 58 59 59 58 56 52 47 46 46 47 48 48 49 50 50 50 50 49 47 46 46 44 42 40 41 43 44 44 42 40 37 34 33 34 36 36 36 37 37 36 36 37 40 42 44 44 45 45 46 45 44 44 46 48 49 49 50 50 50 49 48 47 46 45 45
38 39 41 43 44 46 48 48 47 47 47 47 48 49 51 52 53 53 54 55 57 58 58 57 55 52 49 47 47 48 48 49 49 50 50 49 49 49 48 47 46 44 42 42 42 44 45 44 43 40 38 35 35 37 38 38 38 38 38 37 37 38 40 41 42 42 42 42 42 43 44 46 48 49 50 50 49 48 48 47 45 44 44 44 43
40 41 42 43 44 46 47 48 48 48 48 48 49 50 51 52 53 53 54 56 57 57 57 56 53 51 49 48 48 49 50 50 50 50 50 49 50 50 49 47 46 45 44 43 43 44 44 44 44 43 43 41 41 41 41 42 42 41 40 39 39 39 38 39 40 41 41 42 43 44 46 48 49 50 50 50 49 48 46 45 44 43 44 43 40
43 44 45 45 46 47 47 47 48 49 49 49 48 49 50 51 52 53 54 57 58 57 57 56 53 50 49 48 49 50 50 49 49 50 50 50 51 50 49 47 46 46 45 44 43 43 43 42 42 43 43 42 42 43 43 44 44 43 41 39 38 37 37 38 39 40 41 43 45 47 48 49 49 50 50 50 49 47 45 44 44 43 42 40 37
Wind_Direction
190 193 195 198 198 201 203 203 207 209 211 216 219 223 225 224 224 226 227 227 227 229 234 243 251 259 263 262 260 258 261 265 269 276 281 292 301 304 309 312 315 317 317 320 322 323 324 322 322 317 311 309 309 309 310 312 313 314 315 315 316 318 319 320 319 318 316 313 310 309 308 309 310 309 311 314 316 316 315 311 311 314 311 306 305
192 198 201 206 208 208 210 210 210 213 214 217 220 222 225 227 226 228 229 231 231 233 237 244 252 257 257 254 251 246 243 247 250 253 261 270 279 288 295 297 299 303 305 309 311 315 317 316 314 310 308 307 305 305 305 306 307 308 308 309 310 313 315 315 315 313 312 311 309 306 305 306 308 308 309 313 313 313 311 307 306 308 305 303 303
188 198 204 210 218 218 217 218 218 219 219 218 220 221 222 224 226 227 228 231 233 233 238 243 249 253 252 248 244 240 238 242 247 252 259 268 275 281 285 287 290 292 294 297 299 304 308 309 308 305 304 304 303 303 303 303 303 303 303 304 306 308 309 310 309 309 309 308 306 304 303 303 304 305 308 312 312 311 310 306 304 303 300 300 300
189 194 202 207 217 225 226 225 227 228 227 225 224 224 225 226 227 228 229 230 231 232 235 240 243 246 246 244 241 241 243 246 253 258 263 270 276 280 283 286 289 290 291 294 297 301 304 305 304 301 300 301 302 302 301 301 301 301 301 301 303 304 305 305 305 305 305 305 303 302 301 301 301 302 304 308 310 312 311 306 303 300 296 296 296
197 198 201 207 212 220 225 229 236 237 235 233 231 230 230 230 229 229 228 227 227 228 231 233 235 237 238 240 242 244 248 253 258 262 268 273 278 283 286 289 292 294 296 298 301 303 304 303 302 301 301 301 301 300 299 299 298 299 300 300 300 301 302 302 301 300 301 301 300 299 299 298 298 299 300 304 306 308 309 306 303 300 296 295 295
205 207 209 212 216 220 223 228 235 239 240 239 237 236 235 233 230 228 226 225 224 224 226 228 229 231 234 238 243 247 252 258 262 268 273 278 282 287 290 294 296 298 301 303 304 305 305 305 305 305 305 304 303 302 300 299 298 298 299 299 300 301 301 300 298 297 297 297 296 296 296 296 296 296 298 300 302 304 305 304 302 300 297 296 296
214 214 217 220 223 224 225 229 233 237 241 243 242 240 238 236 233 231 229 226 224 224 224 226 228 230 234 238 244 250 256 263 269 274 279 283 288 292 294 297 300 302 304 305 306 306 306 307 307 306 306 305 305 304 302 300 299 298 298 299 300 300 300 299 297 295 294 294 293 293 294 294 294 294 295 297 299 301 302 300 298 296 297 296 295
225 223 223 226 229 230 230 231 234 237 241 245 246 244 240 238 237 236 235 232 230 229 228 229 231 233 237 242 248 255 262 268 273 277 283 288 292 294 296 298 300 303 304 306 307 308 306 306 305 306 306 306 305 303 300 299 299 299 299 299 299 299 299 298 296 294 293 292 291 290 291 291 291 291 292 294 296 297 298 297 294 292 294 296 296
230 231 231 231 231 232 233 232 233 235 238 242 245 244 243 242 241 239 239 238 237 236 237 238 240 242 244 249 255 262 267 271 276 280 285 290 293 294 295 297 300 300 302 306 308 308 306 304 304 304 305 305 303 302 302 302 302 302 301 300 299 299 298 297 296 294 291 289 287 286 287 287 287 287 288 290 292 294 295 295 293 290 291 294 295
233 236 236 236 235 234 234 234 234 235 235 239 244 247 248 245 244 243 241 242 243 243 244 245 247 250 252 256 262 267 271 274 276 280 283 288 290 290 291 294 296 297 300 304 306 307 306 304 303 303 303 304 304 306 306 306 305 304 302 300 299 298 296 295 294 292 291 289 287 285 285 285 285 286 286 287 289 293 294 295 293 291 289 290 291
231 240 242 241 240 239 238 237 236 236 236 240 245 248 249 248 247 248 248 248 249 249 249 249 251 254 258 262 267 271 273 275 275 276 280 284 283 283 287 292 295 299 303 307 309 309 308 306 304 303 303 304 305 308 308 307 305 303 301 301 299 296 294 292 291 290 290 289 288 287 286 287 287 287 287 288 290 292 294 295 294 292 290 289 287
230 246 256 255 251 245 240 237 236 237 238 241 244 246 246 248 249 252 253 252 251 251 251 251 253 256 259 263 268 271 272 273 273 274 276 276 276 280 287 294 299 303 305 308 310 312 311 311 310 309 308 308 308 308 307 305 304 301 300 300 300 298 295 292 290 289 289 289 289 288 287 287 287 287 288 290 292 293 294 294 293 291 290 290 288
244 259 265 266 263 254 244 241 239 240 242 243 245 246 247 248 250 252 253 251 251 251 251 252 253 254 259 262 266 268 270 272 272 271 270 270 275 283 292 299 304 306 307 310 313 314 314 314 314 313 313 313 312 311 309 308 306 303 302 300 300 299 296 293 291 289 289 288 288 287 287 286 286 286 287 289 291 293 293 294 294 292 291 291 290
241 261 270 271 269 264 258 255 251 249 249 248 248 248 248 247 248 249 250 251 252 253 252 252 253 255 259 263 264 266 269 271 269 266 265 270 280 289 296 302 307 308 310 313 315 315 314 314 314 315 316 316 316 315 315 314 312 308 304 301 299 298 295 292 290 289 288 287 287 286 286 285 285 286 287 288 289 289 290 292 293 293 292 292 292
240 256 271 270 264 264 269 272 269 262 257 255 253 250 247 245 244 245 247 250 251 252 252 251 252 256 261 262 261 264 268 268 266 263 265 274 285 293 298 303 308 311 313 315 315 314 314 315 315 315 315 317 317 318 317 317 315 312 307 304 301 299 296 291 287 286 285 284 284 284 285 285 285 285 285 286 286 286 288 289 290 290 290 290 292
251 258 260 262 261 265 273 280 278 271 265 262 258 251 246 242 242 244 245 247 250 251 252 252 253 256 260 260 260 264 266 266 262 262 266 277 286 291 297 302 306 310 313 315 315 314 313 313 314 315 316 318 317 315 314 315 314 312 309 306 304 305 304 298 290 283 280 281 280 280 283 285 285 285 284 284 284 285 287 288 288 286 286 288 290
249 260 253 251 256 262 271 279 282 281 276 271 266 259 254 250 248 249 248 249 250 251 251 252 253 255 258 258 259 262 263 262 261 262 269 279 286 291 295 298 303 307 311 313 313 312 309 307 308 311 315 317 316 313 312 313 313 311 309 306 305 307 309 305 296 285 278 279 278 277 280 284 286 285 285 285 286 287 287 287 286 285 285 287 289
247 262 254 245 247 255 267 277 283 285 282 278 277 273 271 268 261 255 252 250 249 249 250 251 253 255 255 255 255 258 260 259 259 262 270 279 285 289 293 297 302 307 311 313 313 312 309 307 308 311 313 313 312 311 311 311 310 308 307 303 300 304 307 304 297 289 283 283 284 279 277 281 284 284 284 284 284 285 286 286 286 286 286 288 290
241 258 257 247 243 246 258 268 273 279 283 283 282 284 286 281 270 261 255 251 250 251 252 252 252 252 251 251 252 255 256 256 258 263 271 278 282 287 292 297 302 307 314 318 317 314 311 310 312 315 316 314 311 311 311 312 310 309 307 300 296 301 303 299 295 291 288 288 288 284 280 281 285 284 282 281 282 284 285 286 286 286 288 290 292
228 245 253 249 242 239 246 257 264 271 280 285 284 289 292 285 276 268 262 258 256 256 253 251 250 249 249 249 250 250 252 255 260 267 274 278 281 288 293 298 302 307 315 320 318 313 310 311 315 316 315 312 311 311 310 311 310 311 310 301 294 298 298 292 291 291 291 292 291 287 283 284 286 286 284 282 282 284 285 285 286 287 289 292 294
219 229 242 248 247 245 245 251 259 265 276 286 289 291 293 291 282 270 264 263 262 260 257 253 251 251 248 246 246 248 253 259 265 272 277 281 285 292 296 300 305 310 317 320 317 313 310 311 314 312 309 310 312 311 308 309 312 314 314 303 290 291 291 288 288 291 294 297 295 290 286 286 287 286 284 284 284 285 285 284 286 288 290 293 296
212 217 231 244 249 251 251 249 254 263 274 285 291 292 292 292 283 271 267 264 261 261 258 255 253 249 245 245 248 253 259 263 269 274 279 283 288 293 297 302 309 315 320 319 317 313 308 308 310 308 307 309 313 311 304 302 309 312 310 302 289 285 287 288 289 292 297 301 298 292 288 288 288 285 284 286 288 288 286 285 287 290 293 296 299
207 217 228 239 245 249 249 246 250 261 271 280 289 293 294 293 282 272 270 262 256 256 253 251 250 247 247 251 255 260 263 266 271 275 279 283 286 292 299 305 312 319 323 321 317 312 306 305 309 309 309 309 309 308 296 287 299 309 305 299 292 287 287 289 290 291 297 302 300 296 293 292 290 287 286 289 291 291 289 288 290 293 295 298 301
206 217 228 235 242 246 248 250 254 262 270 277 283 287 292 293 285 273 269 264 258 256 254 252 251 251 254 258 259 262 265 269 272 274 278 281 285 294 304 311 316 322 326 323 317 310 306 308 309 308 310 310 308 308 298 281 285 301 301 295 292 289 290 292 291 290 292 299 301 297 296 297 295 293 292 292 293 293 291 290 292 293 295 296 297
207 215 228 236 241 245 250 256 256 259 268 275 276 281 288 290 288 277 271 271 268 263 259 257 256 257 258 259 260 263 267 270 273 276 279 282 287 300 312 317 321 324 327 325 317 308 306 307 307 306 307 308 305 308 312 296 289 294 293 290 289 289 290 293 294 291 290 295 299 297 297 300 298 294 292 291 291 289 289 289 290 291 294 294 291
207 216 229 237 241 244 250 254 251 255 265 271 272 277 282 286 289 281 271 272 271 264 261 258 257 257 257 259 262 266 269 273 278 281 283 286 293 303 311 315 319 322 325 325 320 313 307 304 304 304 304 304 297 291 296 303 305 299 290 287 288 287 288 291 294 294 292 294 298 297 297 299 296 292 289 288 288 288 288 289 289 290 292 294 292
207 216 228 236 240 242 247 249 248 253 261 264 265 271 277 282 287 281 271 269 266 262 258 256 256 255 256 260 264 269 274 279 284 287 288 290 295 302 306 309 315 319 320 321 320 316 309 303 303 303 304 305 300 289 281 285 297 300 291 287 286 286 287 289 291 294 294 294 296 295 294 295 292 289 288 288 289 290 290 291 292 292 292 294 295
210 212 222 230 235 238 242 244 245 250 256 257 260 267 273 278 281 277 271 265 260 258 255 253 253 253 255 262 268 275 281 284 287 289 290 293 297 302 305 307 312 316 316 317 317 315 310 304 302 302 303 304 303 299 288 282 287 290 288 286 284 284 286 288 289 292 293 292 293 291 291 291 290 289 289 289 290 292 294 296 297 296 294 294 295
212 209 216 223 228 233 236 239 243 249 254 255 258 265 270 274 277 274 268 261 256 253 250 248 249 251 257 266 274 280 286 289 292 293 295 298 302 306 307 308 311 312 312 313 314 313 309 305 301 300 300 298 296 299 295 286 283 284 286 287 283 282 284 286 288 290 290 290 289 288 288 288 289 290 290 292 294 296 298 300 300 297 295 296 297
214 210 213 219 224 229 232 235 239 246 251 254 258 263 267 272 274 271 265 259 254 249 244 244 247 253 260 270 279 288 294 297 298 299 300 303 306 308 307 307 309 310 309 309 311 311 307 301 298 297 296 293 292 295 294 289 285 285 287 286 282 281 283 285 286 286 286 287 286 286 287 288 291 294 295 297 299 300 301 301 300 298 296 297 298
219 215 215 218 223 229 232 235 240 245 250 253 256 260 264 268 268 265 260 254 246 240 240 244 250 258 267 276 284 292 298 301 303 303 303 305 307 308 308 308 310 309 308 308 308 307 304 298 295 295 294 292 292 294 293 290 288 288 288 286 283 283 283 283 283 284 285 286 286 286 287 289 293 296 297 299 301 301 301 302 301 299 298 299 299
224 222 220 218 221 228 234 239 243 247 250 252 254 257 260 262 260 256 252 245 238 238 245 251 257 265 274 281 286 293 298 302 305 305 305 306 307 309 309 309 310 309 309 309 307 304 301 296 294 294 294 291 292 292 290 288 288 289 288 286 283 283 284 284 284 284 285 286 285 284 286 290 294 296 296 297 299 299 300 300 301 301 301 302 301
227 227 224 218 219 226 233 239 244 247 248 250 251 251 252 254 252 248 247 245 242 248 255 260 264 270 278 282 287 293 297 300 303 304 304 305 305 306 306 307 309 310 311 309 306 303 299 295 293 294 292 290 290 289 285 285 287 289 287 285 285 285 285 284 283 283 285 285 283 282 286 291 293 294 295 296 297 297 298 300 301 302 302 302 300
232 230 224 218 218 226 233 238 241 242 243 244 245 245 245 248 250 250 253 256 257 260 264 267 269 273 278 282 287 291 295 298 300 302 304 304 303 302 303 305 309 311 311 309 305 301 297 293 293 293 291 290 290 288 286 287 289 288 285 285 285 285 284 282 282 283 285 284 280 281 287 291 291 290 292 293 293 294 298 301 302 301 300 299 297
236 231 222 216 219 227 233 237 238 238 240 241 242 241 243 248 254 258 262 266 267 269 272 274 275 277 282 286 288 290 293 296 298 300 302 303 301 300 300 304 309 311 310 308 303 298 294 293 293 293 292 290 289 288 288 289 288 286 285 285 285 284 282 282 282 282 281 279 277 280 286 289 289 288 289 290 290 291 294 297 298 299 299 297 297
236 229 217 211 219 227 231 234 235 236 238 240 241 243 244 249 257 262 265 268 271 274 276 278 280 283 287 290 290 291 293 295 296 298 299 301 301 300 300 303 308 310 309 306 301 294 291 293 293 292 291 288 287 287 288 288 287 286 285 284 283 283 282 281 282 281 278 276 276 280 284 286 286 286 288 289 289 289 291 293 295 296 297 298 298
236 227 212 207 217 225 229 232 233 235 237 240 244 246 248 252 259 263 266 269 272 273 275 278 281 285 288 290 290 290 291 293 295 296 297 299 300 300 302 303 306 308 307 304 298 292 291 293 293 291 289 287 286 289 289 288 287 285 282 280 279 279 279 279 280 278 276 276 277 280 282 283 283 284 286 288 288 290 293 295 295 295 296 298 299
231 222 211 209 216 224 229 230 232 236 238 242 246 248 250 255 259 263 266 269 272 273 273 275 279 282 285 288 288 288 289 291 294 295 296 298 299 300 302 303 305 306 304 300 296 292 292 294 294 292 291 289 289 290 291 289 284 280 279 277 276 276 277 277 277 275 275 276 278 281 282 282 282 283 284 285 287 292 296 297 296 296 298 300 301
224 215 210 211 216 222 225 225 228 235 239 243 247 250 253 256 257 261 265 268 270 271 272 273 275 277 281 284 285 286 287 289 291 293 295 298 299 300 301 302 303 303 300 297 296 293 292 294 294 293 292 290 289 290 291 286 279 276 279 280 279 278 276 275 275 275 276 278 280 282 283 283 283 283 284 287 291 295 297 297 297 299 301 302 301
219 212 209 212 217 221 224 224 228 234 240 244 248 252 254 255 256 259 263 265 267 269 270 271 272 273 276 280 282 283 283 285 288 291 295 298 299 299 299 300 302 300 296 294 294 292 292 294 295 294 292 290 289 290 290 283 276 279 283 284 282 279 276 275 275 275 275 278 281 284 285 285 286 285 286 291 296 297 298 299 300 301 302 301 299
218 214 211 212 217 221 225 227 230 233 238 243 247 251 252 253 254 257 259 262 265 267 268 269 269 270 273 276 280 282 283 285 288 291 294 297 297 297 298 299 299 297 293 291 292 292 292 293 294 294 293 291 289 290 289 281 278 283 287 288 286 282 278 277 276 274 276 280 284 286 287 287 287 287 290 295 297 298 299 300 302 302 302 300 299
219 217 213 213 216 221 226 230 232 233 236 239 243 248 251 251 253 255 258 261 263 265 265 266 267 269 270 274 279 282 284 286 289 291 294 295 295 295 297 297 296 293 291 290 291 291 291 292 292 293 292 290 290 289 285 280 282 287 291 292 290 285 280 278 277 277 280 284 286 286 286 287 289 291 294 297 298 299 301 302 303 302 301 299 300
218 218 216 215 218 222 227 231 233 234 236 239 242 246 249 251 254 256 258 261 263 263 264 265 266 266 268 272 276 280 283 285 287 290 293 295 295 295 295 294 292 290 291 291 292 292 291 291 292 292 292 292 291 287 281 283 288 293 294 293 290 285 280 277 278 280 283 285 286 286 287 291 293 294 296 297 298 299 300 301 302 301 300 299 300
217 219 219 218 220 223 227 230 232 235 239 242 244 247 249 252 254 257 259 261 263 264 264 264 263 263 266 271 276 280 283 284 286 289 292 292 293 293 291 290 288 289 291 293 293 292 292 292 293 293 294 296 294 288 285 291 295 296 294 291 289 285 280 278 280 282 282 283 284 286 290 293 294 295 296 297 297 298 299 300 300 300 299 299 298
219 221 221 220 221 223 226 230 234 237 241 243 246 248 250 251 254 256 258 261 262 263 263 263 264 266 270 274 278 280 282 283 285 289 290 291 292 291 288 287 287 289 292 294 294 294 293 294 295 296 297 297 294 290 291 296 298 297 294 292 290 287 284 283 284 283 282 284 286 289 292 293 294 295 296 296 297 298 298 299 299 298 298 297 295
220 222 222 221 222 224 227 230 234 237 241 243 246 248 250 252 255 257 259 260 260 260 261 262 265 269 273 276 279 279 280 282 285 287 289 290 291 289 287 286 288 290 292 294 295 295 295 296 298 297 296 295 292 290 293 295 296 295 292 288 286 284 282 282 282 282 284 287 289 291 292 293 293 294 295 296 297 297 297 297 298 297 296 294 294
219 221 222 222 222 225 228 231 234 238 241 244 246 248 251 253 255 256 257 259 260 261 261 263 266 269 272 275 277 278 279 282 285 286 288 289 289 288 287 287 289 290 292 294 294 294 295 298 299 297 294 293 290 291 293 293 293 293 291 286 283 281 280 280 280 282 285 288 289 290 291 291 292 294 295 295 296 295 296 297 297 296 294 294 296
219 222 223 223 224 227 230 233 237 240 243 246 248 250 251 251 252 254 256 258 261 264 265 268 270 272 273 274 275 276 279 282 284 286 287 288 288 288 288 288 289 290 291 292 293 294 295 298 298 297 294 291 289 291 293 293 293 293 292 289 285 282 281 281 282 284 286 287 288 289 290 291 292 293 294 294 294 295 296 296 296 295 295 297 299
220 223 225 225 227 228 230 234 237 240 243 246 249 250 251 251 253 255 257 261 265 269 272 273 274 273 272 272 273 276 280 282 284 285 286 287 288 288 288 288 288 288 289 291 292 293 294 296 297 297 295 292 291 293 295 294 294 294 292 290 287 286 285 285 285 285 286 287 288 289 290 290 291 292 292 292 293 294 295 296 295 295 296 298 298
220 222 224 226 227 229 231 234 236 239 241 244 247 248 250 251 254 256 260 264 268 271 273 273 273 271 270 271 274 277 280 282 283 284 285 286 287 288 288 287 287 288 290 292 292 292 292 294 295 296 296 295 294 295 296 295 295 294 293 291 290 290 289 287 286 286 287 288 288 289 289 290 291 291 292 293 295 296 297 297 296 296 298 298 296
223 224 225 226 227 228 231 233 236 239 242 244 246 248 250 252 255 258 262 265 268 270 270 270 270 269 269 272 275 278 279 280 280 282 284 286 287 287 287 286 287 289 291 292 292 292 292 293 294 295 295 293 292 293 294 294 294 293 293 292 291 290 288 286 286 288 288 288 289 290 291 292 293 294 295 297 299 300 300 299 298 298 298 296 295
Height
5913 5914 5915 5915 5916 5917 5918 5918 5919 5920 5920 5921 5922 5922 5923 5924 5925 5925 5926 5926 5926 5927 5927 5927 5928 5928 5928 5928 5929 5929 5929 5929 5929 5930 5930 5930 5930 5930 5930 5930 5929 5929 5928 5928 5928 5928 5927 5926 5926 5926 5926 5925 5924 5923 5922 5920 5919 5918 5917 5916 5916 5915 5914 5913 5913 5912 5911 5911 5909 5908 5907 5906 5906 5905 5904 5904 5903 5902 5901 5900 5899 5898 5898 5897 5896
5913 5914 5915 5915 5916 5917 5917 5918 5918 5919 5920 5920 5921 5922 5922 5923 5924 5924 5925 5925 5926 5926 5926 5927 5927 5927 5928 5928 5928 5928 5929 5929 5929 5929 5929 5929 5930 5929 5929 5929 5929 5928 5928 5927 5927 5927 5926 5926 5925 5925 5924 5923 5922 5921 5920 5919 5918 5917 5916 5915 5914 5913 5912 5911 5911 5910 5910 5909 5908 5907 5906 5905 5904 5903 5902 5902 5902 5901 5900 5899 5898 5897 5896 5895 5894
5913 5913 5914 5915 5915 5916 5917 5917 5918 5918 5919 5920 5920 5921 5922 5922 5923 5923 5924 5924 5925 5925 5925 5926 5926 5927 5927 5928 5928 5928 5928 5929 5929 5929 5929 5929 5929 5929 5928 5928 5928 5928 5927 5927 5926 5925 5925 5924 5924 5923 5922 5921 5920 5919 5918 5917 5916 5915 5914 5913 5912 5911 5910 5910 5909 5909 5908 5907 5907 5906 5905 5904 5903 5902 5901 5900 5900 5900 5899 5898 5897 5896 5895 5894 5893
5912 5913 5913 5914 5915 5915 5916 5917 5917 5918 5918 5919 5920 5920 5921 5922 5922 5923 5923 5923 5924 5924 5925 5925 5925 5926 5926 5927 5927 5927 5928 5928 5928 5929 5929 5928 5928 5928 5927 5927 5927 5926 5926 5925 5924 5924 5923 5922 5921 5920 5920 5919 5918 5917 5916 5915 5914 5913 5912 5911 5910 5910 5909 5908 5907 5907 5906 5906 5905 5904 5904 5903 5902 5901 5900 5899 5898 5898 5897 5897 5896 5895 5894 5893 5892
5911 5912 5912 5913 5914 5914 5915 5916 5917 5917 5918 5918 5919 5920 5920 5921 5921 5922 5922 5923 5923 5923 5924 5924 5925 5925 5926 5926 5926 5927 5927 5927 5927 5928 5928 5927 5927 5927 5926 5926 5925 5925 5924 5923 5923 5922 5921 5920 5919 5918 5917 5916 5915 5915 5914 5913 5912 5911 5910 5909 5909 5908 5907 5906 5906 5905 5905 5904 5903 5903 5902 5902 5901 5900 5899 5898 5898 5897 5896 5895 5894 5894 5893 5891 5891
5911 5911 5912 5912 5913 5913 5914 5915 5916 5916 5917 5917 5918 5919 5920 5920 5921 5921 5921 5921 5922 5922 5923 5923 5924 5924 5925 5925 5926 5926 5926 5926 5926 5926 5926 5926 5926 5925 5925 5924 5924 5923 5922 5921 5920 5919 5918 5918 5917 5916 5915 5914 5914 5913 5912 5911 5910 5909 5908 5907 5907 5906 5905 5904 5904 5903 5903 5902 5902 5901 5901 5901 5900 5899 5898 5897 5897 5896 5895 5894 5893 5892 5891 5890 5889
5910 5910 5911 5912 5912 5913 5913 5914 5914 5915 5916 5916 5917 5918 5919 5919 5920 5920 5920 5921 5921 5921 5922 5922 5923 5923 5924 5924 5925 5925 5925 5925 5925 5925 5925 5924 5924 5923 5923 5922 5921 5921 5920 5919 5918 5917 5916 5916 5915 5915 5914 5913 5912 5911 5910 5909 5908 5907 5906 5905 5905 5904 5903 5902 5902 5901 5901 5900 5900 5900 5899 5899 5898 5898 5897 5896 5895 5894 5894 5893 5892 5890 5889 5888 5887
5909 5909 5910 5910 5911 5912 5912 5912 5913 5913 5914 5915 5916 5917 5917 5918 5919 5919 5919 5920 5920 5920 5921 5921 5922 5922 5922 5923 5923 5924 5924 5924 5923 5923 5923 5922 5922 5921 5921 5920 5920 5919 5918 5917 5916 5916 5915 5914 5914 5913 5912 5911 5910 5909 5908 5907 5906 5905 5904 5904 5903 5902 5901 5901 5900 5900 5899 5898 5898 5897 5897 5896 5896 5895 5895 5894 5893 5892 5891 5891 5890 5889 5887 5886 5885
5907 5908 5908 5909 5909 5910 5910 5911 5911 5912 5913 5914 5915 5915 5916 5917 5918 5918 5919 5919 5919 5919 5920 5920 5920 5921 5921 5922 5922 5922 5922 5922 5922 5921 5921 5921 5920 5919 5919 5919 5918 5917 5916 5916 5915 5914 5914 5913 5912 5911 5910 5909 5908 5907 5906 5905 5904 5903 5903 5902 5901 5900 5899 5899 5898 5897 5897 5896 5896 5895 5895 5894 5893 5892 5892 5891 5890 5889 5889 5888 5887 5886 5885 5885 5883
5905 5906 5907 5907 5908 5908 5908 5909 5910 5910 5911 5912 5913 5914 5915 5916 5916 5917 5917 5917 5918 5918 5919 5919 5919 5919 5920 5920 5921 5921 5920 5920 5920 5920 5919 5919 5918 5918 5917 5917 5916 5916 5915 5914 5914 5913 5912 5911 5910 5909 5908 5908 5907 5906 5904 5903 5902 5901 5901 5900 5899 5898 5897 5896 5896 5895 5894 5894 5893 5892 5892 5891 5890 5890 5889 5889 5888 5886 5885 5885 5884 5884 5883 5883 5881
5902 5904 5904 5905 5906 5906 5907 5907 5908 5909 5909 5910 5911 5912 5913 5914 5914 5915 5915 5916 5916 5917 5917 5917 5918 5918 5918 5918 5919 5919 5918 5918 5918 5918 5918 5917 5917 5916 5916 5915 5915 5914 5913 5913 5912 5911 5910 5909 5908 5907 5906 5906 5904 5903 5902 5901 5900 5900 5899 5898 5897 5896 5895 5894 5893 5892 5891 5891 5890 5889 5889 5888 5888 5887 5886 5886 5885 5884 5883 5882 5881 5880 5880 5880 5879
5898 5901 5903 5903 5904 5904 5905 5905 5906 5906 5907 5908 5909 5910 5911 5911 5912 5913 5913 5914 5914 5915 5915 5915 5916 5916 5916 5917 5917 5917 5916 5916 5916 5916 5916 5915 5915 5914 5914 5914 5913 5912 5912 5911 5910 5909 5908 5907 5906 5905 5904 5903 5902 5901 5900 5899 5898 5897 5896 5895 5894 5893 5892 5891 5890 5889 5888 5888 5887 5887 5886 5886 5885 5884 5883 5882 5882 5881 5880 5879 5878 5878 5876 5876 5876
5895 5898 5901 5901 5902 5903 5903 5904 5904 5905 5905 5906 5906 5907 5908 5909 5910 5911 5911 5912 5912 5913 5913 5913 5914 5914 5914 5914 5915 5914 5914 5914 5914 5914 5914 5913 5913 5913 5912 5912 5911 5911 5910 5909 5908 5907 5906 5905 5904 5903 5902 5901 5899 5898 5897 5896 5895 5894 5893 5892 5891 5890 5889 5888 5887 5886 5885 5884 5884 5884 5883 5883 5882 5881 5880 5879 5879 5878 5877 5876 5875 5874 5873 5873 5872
5893 5896 5899 5900 5901 5902 5902 5903 5903 5904 5904 5904 5904 5905 5906 5906 5907 5908 5909 5909 5910 5910 5911 5911 5911 5912 5912 5912 5912 5912 5912 5912 5912 5912 5912 5911 5911 5911 5910 5910 5910 5909 5908 5908 5907 5906 5904 5903 5902 5901 5900 5898 5897 5896 5895 5894 5893 5891 5890 5889 5888 5887 5886 5885 5884 5883 5882 5881 5881 5880 5880 5880 5879 5878 5877 5876 5876 5875 5874 5873 5872 5871 5870 5869 5868
5892 5894 5897 5898 5899 5900 5901 5902 5902 5902 5902 5902 5903 5903 5903 5904 5904 5905 5906 5907 5908 5908 5909 5909 5909 5910 5910 5910 5910 5910 5910 5910 5910 5910 5910 5910 5909 5909 5908 5908 5908 5907 5907 5906 5905 5903 5902 5901 5900 5899 5898 5896 5895 5893 5892 5891 5889 5888 5886 5885 5884 5883 5882 5881 5880 5880 5879 5878 5878 5877 5877 5877 5876 5875 5874 5873 5873 5872 5871 5870 5869 5868 5867 5866 5864
5891 5893 5895 5896 5898 5898 5899 5900 5900 5900 5901 5901 5901 5901 5901 5901 5902 5903 5904 5904 5905 5906 5906 5907 5907 5908 5908 5908 5908 5908 5908 5908 5908 5908 5908 5908 5908 5907 5906 5906 5906 5905 5905 5904 5902 5901 5900 5899 5897 5896 5895 5894 5893 5891 5889 5887 5886 5885 5883 5882 5880 5879 5878 5877 5876 5875 5875 5875 5874 5874 5874 5874 5873 5872 5871 5870 5869 5869 5868 5867 5866 5865 5864 5863 5862
5890 5891 5894 5895 5896 5897 5897 5898 5899 5899 5899 5899 5899 5899 5899 5899 5900 5900 5901 5902 5903 5903 5904 5904 5905 5906 5906 5906 5906 5906 5906 5906 5906 5906 5906 5906 5906 5905 5905 5904 5904 5904 5903 5902 5901 5900 5898 5897 5896 5895 5894 5893 5891 5889 5887 5885 5883 5882 5880 5878 5877 5875 5874 5872 5871 5870 5870 5871 5870 5870 5871 5870 5870 5869 5868 5867 5866 5866 5865 5864 5863 5862 5861 5860 5859
5888 5890 5892 5893 5894 5895 5896 5896 5897 5897 5897 5898 5897 5897 5897 5898 5898 5898 5899 5900 5900 5900 5901 5901 5902 5903 5903 5903 5903 5904 5904 5904 5904 5904 5905 5905 5904 5903 5903 5903 5902 5902 5901 5901 5900 5898 5896 5895 5894 5893 5892 5890 5888 5886 5884 5882 5880 5879 5877 5875 5874 5872 5870 5868 5867 5866 5866 5866 5866 5866 5867 5867 5866 5865 5864 5864 5863 5862 5861 5860 5860 5859 5858 5857 5856
5886 5888 5889 5891 5892 5893 5894 5895 5895 5895 5895 5896 5896 5896 5896 5896 5896 5896 5897 5897 5897 5898 5898 5899 5899 5900 5900 5900 5901 5901 5902 5902 5902 5903 5903 5903 5902 5902 5901 5901 5901 5900 5900 5899 5897 5896 5894 5893 5892 5891 5889 5888 5885 5883 5881 5879 5877 5875 5874 5872 5871 5869 5867 5865 5864 5863 5863 5863 5862 5862 5862 5863 5862 5861 5861 5860 5860 5859 5858 5857 5857 5856 5854 5854 5853
5884 5887 5887 5889 5890 5891 5892 5893 5893 5894 5894 5894 5894 5894 5894 5894 5894 5895 5895 5895 5895 5895 5896 5896 5896 5897 5897 5898 5899 5899 5900 5900 5900 5901 5901 5901 5900 5900 5900 5899 5899 5898 5897 5896 5895 5893 5891 5890 5889 5888 5887 5885 5883 5880 5878 5876 5874 5872 5870 5868 5867 5866 5864 5863 5861 5860 5860 5860 5860 5859 5858 5859 5858 5858 5857 5857 5856 5856 5855 5854 5853 5852 5851 5851 5849
5882 5884 5886 5886 5888 5889 5890 5891 5891 5891 5892 5892 5892 5893 5893 5893 5893 5893 5893 5893 5893 5893 5894 5894 5894 5895 5896 5896 5897 5897 5898 5898 5899 5899 5899 5898 5898 5898 5898 5897 5897 5896 5895 5894 5892 5891 5889 5887 5886 5885 5884 5882 5881 5878 5876 5874 5872 5869 5867 5865 5864 5863 5861 5860 5859 5858 5857 5857 5857 5856 5856 5856 5855 5855 5854 5853 5853 5852 5852 5851 5850 5849 5848 5847 5846
5880 5882 5883 5884 5885 5886 5888 5888 5889 5889 5890 5890 5891 5891 5891 5891 5891 5891 5891 5891 5891 5891 5892 5892 5893 5893 5894 5894 5895 5896 5896 5896 5897 5897 5896 5895 5896 5896 5896 5895 5894 5893 5892 5891 5890 5889 5887 5884 5883 5882 5880 5879 5878 5875 5873 5872 5870 5867 5865 5863 5862 5860 5859 5857 5856 5856 5855 5855 5855 5854 5853 5852 5852 5851 5850 5850 5849 5849 5848 5847 5846 5845 5844 5843 5841
5878 5879 5880 5881 5883 5884 5885 5886 5887 5887 5888 5888 5888 5889 5890 5890 5890 5890 5890 5890 5890 5890 5891 5891 5892 5892 5892 5893 5893 5894 5894 5894 5895 5894 5894 5893 5893 5894 5894 5893 5892 5891 5890 5889 5888 5886 5884 5882 5880 5879 5878 5876 5874 5872 5870 5869 5867 5865 5863 5860 5859 5858 5856 5855 5854 5854 5853 5853 5852 5850 5849 5849 5848 5847 5846 5846 5845 5844 5843 5842 5842 5841 5840 5838 5836
5877 5877 5877 5879 5880 5881 5883 5884 5884 5885 5885 5886 5886 5887 5888 5888 5888 5888 5888 5888 5888 5889 5889 5889 5890 5890 5891 5891 5891 5892 5892 5892 5892 5892 5891 5891 5892 5893 5892 5891 5890 5890 5888 5886 5885 5884 5881 5879 5878 5876 5874 5873 5871 5868 5865 5864 5864 5862 5860 5857 5855 5854 5853 5852 5851 5851 5850 5850 5849 5847 5846 5845 5844 5843 5842 5841 5840 5839 5838 5838 5837 5836 5835 5833 5832
5874 5875 5875 5876 5878 5879 5880 5882 5882 5882 5883 5884 5884 5885 5885 5886 5886 5886 5886 5886 5886 5887 5887 5888 5888 5888 5889 5889 5889 5890 5890 5890 5890 5890 5889 5889 5890 5892 5891 5889 5887 5886 5885 5884 5882 5881 5879 5877 5875 5873 5871 5870 5868 5866 5862 5861 5862 5860 5857 5854 5852 5850 5849 5848 5848 5847 5847 5846 5845 5844 5843 5842 5840 5839 5837 5836 5835 5834 5834 5833 5832 5831 5830 5829 5827
5871 5872 5872 5873 5875 5876 5878 5879 5880 5880 5881 5882 5882 5883 5883 5884 5884 5884 5884 5884 5885 5885 5885 5886 5886 5887 5887 5887 5887 5888 5887 5887 5887 5887 5887 5887 5888 5889 5889 5886 5884 5883 5882 5881 5879 5878 5876 5874 5872 5870 5868 5867 5865 5864 5861 5859 5859 5857 5854 5851 5849 5847 5846 5845 5844 5844 5843 5842 5841 5840 5839 5838 5836 5835 5833 5832 5831 5830 5829 5828 5827 5826 5825 5824 5822
5867 5868 5869 5871 5872 5874 5875 5876 5877 5878 5878 5879 5880 5881 5881 5882 5882 5882 5882 5882 5883 5883 5883 5884 5884 5885 5885 5885 5885 5885 5885 5885 5885 5885 5885 5885 5886 5886 5885 5883 5881 5880 5878 5877 5876 5875 5873 5870 5868 5866 5864 5863 5861 5860 5858 5856 5855 5853 5850 5848 5846 5844 5843 5842 5842 5841 5840 5839 5837 5836 5835 5833 5832 5830 5829 5828 5827 5826 5825 5824 5823 5822 5821 5820 5818
5863 5864 5866 5867 5868 5870 5872 5873 5874 5874 5875 5877 5878 5878 5879 5879 5880 5880 5880 5880 5880 5881 5881 5882 5882 5883 5883 5883 5883 5883 5883 5883 5883 5883 5882 5882 5883 5883 5881 5880 5878 5876 5874 5873 5872 5870 5868 5866 5864 5862 5860 5859 5857 5856 5854 5853 5851 5849 5846 5844 5843 5841 5840 5840 5838 5838 5836 5835 5833 5832 5830 5829 5827 5826 5825 5824 5823 5822 5821 5820 5819 5818 5816 5815 5813
5859 5860 5862 5863 5864 5867 5868 5869 5870 5871 5872 5874 5875 5876 5877 5877 5877 5877 5877 5878 5878 5879 5879 5879 5880 5880 5881 5881 5880 5880 5880 5880 5880 5880 5880 5879 5880 5879 5877 5876 5875 5873 5870 5869 5867 5866 5864 5861 5859 5858 5856 5854 5853 5852 5851 5849 5847 5845 5842 5841 5840 5838 5837 5837 5835 5834 5833 5831 5830 5828 5827 5825 5823 5822 5821 5820 5819 5817 5816 5816 5814 5813 5812 5810 5809
5854 5856 5857 5858 5860 5862 5864 5865 5866 5867 5869 5870 5872 5873 5874 5874 5874 5874 5874 5875 5875 5876 5876 5877 5878 5878 5878 5878 5878 5877 5877 5877 5877 5877 5876 5876 5876 5875 5874 5872 5871 5869 5866 5864 5863 5861 5859 5857 5855 5854 5853 5851 5849 5849 5847 5845 5843 5841 5839 5838 5836 5834 5834 5834 5832 5831 5830 5828 5826 5825 5823 5822 5821 5820 5818 5817 5815 5813 5812 5811 5810 5808 5807 5806 5805
5850 5852 5853 5854 5856 5858 5860 5862 5863 5864 5866 5867 5869 5870 5870 5871 5871 5871 5872 5872 5873 5874 5874 5874 5875 5875 5875 5875 5875 5874 5874 5874 5874 5873 5873 5873 5872 5872 5870 5868 5867 5865 5863 5860 5858 5857 5855 5852 5851 5850 5849 5847 5846 5845 5843 5841 5839 5837 5836 5834 5832 5831 5830 5830 5828 5827 5826 5824 5823 5821 5820 5819 5818 5816 5814 5813 5812 5809 5807 5806 5805 5804 5803 5801 5799
5848 5849 5849 5850 5852 5855 5858 5859 5860 5861 5862 5864 5865 5867 5867 5868 5868 5869 5869 5869 5870 5871 5871 5872 5872 5872 5872 5872 5871 5871 5871 5871 5870 5870 5870 5869 5869 5867 5866 5864 5863 5861 5859 5856 5854 5852 5850 5848 5847 5846 5845 5843 5842 5841 5839 5837 5835 5833 5832 5830 5828 5827 5826 5825 5824 5823 5822 5820 5819 5818 5817 5816 5815 5813 5811 5810 5809 5806 5804 5802 5801 5800 5798 5795 5793
5844 5845 5845 5846 5848 5851 5854 5856 5857 5858 5859 5860 5862 5863 5864 5865 5865 5866 5866 5867 5868 5869 5868 5868 5869 5869 5869 5868 5868 5868 5868 5867 5867 5866 5866 5865 5865 5863 5861 5860 5858 5857 5854 5852 5849 5847 5845 5843 5842 5842 5840 5838 5838 5837 5836 5833 5830 5829 5827 5825 5824 5823 5823 5822 5820 5819 5817 5816 5815 5814 5814 5813 5811 5809 5807 5806 5805 5803 5800 5798 5796 5794 5793 5790 5788
5839 5841 5842 5842 5844 5847 5850 5852 5853 5854 5855 5856 5858 5859 5861 5861 5862 5863 5864 5864 5865 5865 5865 5865 5865 5865 5865 5865 5865 5865 5865 5864 5863 5863 5862 5861 5860 5859 5858 5856 5854 5852 5850 5847 5845 5842 5840 5838 5837 5837 5835 5834 5833 5833 5831 5828 5826 5824 5822 5820 5819 5819 5819 5818 5817 5815 5814 5813 5811 5810 5809 5808 5807 5806 5804 5803 5801 5799 5796 5793 5791 5789 5787 5785 5783
5834 5837 5838 5838 5840 5844 5846 5848 5849 5850 5851 5852 5854 5856 5857 5858 5859 5860 5861 5861 5861 5861 5861 5861 5862 5862 5862 5862 5862 5861 5861 5860 5859 5858 5858 5857 5856 5855 5853 5851 5849 5847 5846 5843 5841 5838 5836 5834 5833 5832 5831 5829 5828 5827 5825 5823 5821 5819 5817 5816 5815 5815 5815 5814 5813 5811 5811 5809 5807 5806 5805 5804 5803 5802 5801 5799 5798 5795 5793 5790 5788 5785 5783 5780 5778
5829 5832 5832 5833 5837 5840 5842 5844 5845 5846 5847 5848 5850 5852 5853 5854 5856 5856 5857 5858 5858 5858 5858 5858 5858 5858 5859 5858 5858 5858 5857 5856 5855 5854 5854 5852 5851 5850 5848 5847 5845 5843 5841 5839 5837 5835 5833 5831 5829 5828 5827 5825 5823 5823 5821 5819 5817 5815 5813 5812 5812 5811 5811 5810 5809 5808 5807 5805 5803 5801 5801 5800 5799 5798 5796 5795 5793 5791 5790 5788 5785 5782 5780 5777 5774
5825 5827 5828 5829 5833 5836 5838 5840 5841 5842 5843 5844 5846 5847 5849 5851 5852 5853 5853 5854 5854 5854 5854 5854 5854 5854 5854 5854 5854 5854 5853 5852 5851 5850 5849 5848 5846 5845 5844 5842 5840 5838 5836 5835 5833 5831 5829 5827 5825 5824 5823 5821 5820 5818 5817 5815 5813 5811 5809 5809 5808 5808 5807 5806 5805 5804 5803 5801 5798 5797 5796 5795 5794 5793 5792 5790 5788 5786 5785 5783 5780 5778 5775 5772 5769
5820 5823 5823 5825 5829 5832 5834 5836 5837 5837 5838 5840 5841 5843 5845 5847 5848 5849 5850 5850 5851 5851 5851 5851 5850 5850 5850 5850 5850 5850 5849 5848 5848 5846 5845 5843 5842 5841 5839 5837 5835 5833 5831 5830 5829 5827 5824 5822 5821 5820 5818 5817 5815 5814 5813 5811 5809 5807 5806 5806 5805 5804 5804 5802 5801 5800 5798 5796 5793 5793 5791 5789 5788 5788 5786 5784 5782 5781 5779 5777 5774 5772 5769 5766 5763
5816 5818 5819 5822 5825 5828 5830 5832 5833 5833 5835 5836 5837 5839 5842 5843 5844 5845 5846 5846 5847 5847 5847 5847 5846 5846 5846 5846 5846 5846 5845 5844 5843 5842 5840 5839 5837 5836 5835 5832 5830 5829 5827 5825 5824 5822 5820 5818 5816 5815 5814 5812 5811 5809 5808 5807 5805 5803 5803 5803 5802 5801 5800 5798 5796 5795 5793 5791 5790 5788 5786 5784 5783 5782 5780 5779 5777 5775 5773 5770 5768 5765 5762 5759 5756
5810 5813 5815 5818 5821 5823 5826 5827 5829 5830 5831 5832 5834 5836 5838 5839 5840 5841 5842 5842 5842 5842 5842 5842 5842 5841 5841 5841 5841 5841 5841 5840 5839 5837 5835 5834 5833 5831 5830 5827 5825 5824 5822 5820 5819 5817 5815 5813 5811 5810 5808 5807 5805 5804 5803 5802 5801 5799 5799 5799 5798 5797 5794 5793 5791 5789 5787 5786 5785 5783 5781 5779 5778 5776 5775 5773 5771 5769 5766 5763 5760 5758 5755 5753 5750
5805 5808 5811 5814 5816 5819 5821 5823 5824 5826 5827 5828 5830 5831 5833 5834 5835 5836 5836 5837 5837 5837 5838 5837 5836 5836 5836 5836 5836 5836 5836 5835 5834 5832 5831 5830 5828 5826 5825 5822 5820 5819 5817 5816 5814 5811 5809 5807 5805 5804 5802 5801 5799 5798 5798 5798 5797 5795 5794 5793 5792 5791 5788 5786 5785 5784 5782 5781 5779 5778 5776 5775 5772 5770 5768 5767 5765 5762 5759 5756 5753 5751 5749 5747 5745
5799 5803 5807 5809 5811 5814 5816 5818 5820 5822 5823 5824 5825 5826 5828 5829 5830 5830 5831 5832 5832 5832 5832 5832 5831 5831 5831 5831 5831 5831 5830 5829 5828 5827 5826 5824 5823 5821 5819 5818 5816 5814 5813 5811 5809 5806 5804 5802 5800 5798 5797 5794 5793 5792 5793 5793 5792 5790 5789 5788 5786 5785 5783 5780 5778 5777 5776 5775 5773 5772 5771 5769 5767 5764 5762 5760 5758 5755 5752 5750 5747 5745 5743 5741 5739
5796 5799 5802 5804 5807 5809 5812 5814 5816 5817 5818 5819 5821 5822 5823 5824 5825 5826 5827 5827 5827 5827 5826 5826 5826 5826 5825 5826 5826 5825 5825 5824 5823 5822 5820 5819 5817 5815 5814 5813 5811 5810 5808 5806 5804 5801 5799 5797 5795 5794 5792 5789 5787 5788 5788 5787 5786 5785 5783 5781 5780 5778 5776 5774 5773 5772 5771 5769 5767 5766 5765 5763 5761 5759 5756 5754 5751 5749 5746 5743 5741 5740 5737 5735 5733
5790 5793 5796 5799 5802 5804 5807 5808 5810 5812 5814 5816 5817 5818 5819 5820 5821 5821 5821 5821 5821 5821 5820 5820 5820 5820 5820 5821 5821 5820 5819 5819 5817 5816 5815 5813 5812 5810 5809 5808 5806 5805 5803 5801 5799 5796 5794 5792 5790 5789 5787 5784 5782 5783 5783 5781 5780 5779 5777 5775 5773 5771 5770 5769 5768 5767 5766 5763 5762 5760 5759 5757 5754 5753 5750 5748 5745 5743 5740 5738 5736 5734 5732 5729 5727
5785 5788 5791 5795 5797 5799 5802 5804 5807 5809 5810 5811 5812 5813 5814 5815 5815 5815 5816 5816 5815 5815 5814 5814 5814 5814 5815 5816 5815 5815 5814 5813 5811 5810 5809 5808 5806 5804 5803 5802 5800 5799 5798 5796 5794 5792 5789 5787 5786 5784 5782 5780 5778 5777 5776 5776 5775 5773 5772 5770 5768 5766 5765 5764 5762 5761 5759 5757 5756 5754 5752 5750 5748 5746 5744 5742 5739 5737 5734 5732 5731 5728 5726 5724 5721
5780 5784 5787 5790 5792 5795 5798 5800 5802 5804 5805 5806 5807 5808 5809 5809 5809 5810 5810 5809 5809 5808 5808 5807 5808 5809 5810 5810 5809 5808 5808 5806 5805 5804 5803 5802 5800 5799 5797 5796 5795 5794 5792 5791 5789 5787 5784 5782 5781 5780 5778 5776 5775 5773 5772 5771 5770 5768 5767 5765 5764 5762 5760 5758 5757 5755 5753 5751 5749 5747 5746 5744 5742 5740 5738 5735 5733 5731 5729 5727 5725 5722 5720 5717 5715
5775 5778 5781 5784 5787 5790 5792 5795 5797 5798 5800 5801 5802 5803 5803 5804 5804 5804 5804 5803 5802 5802 5802 5802 5803 5804 5804 5804 5803 5802 5801 5800 5799 5798 5797 5796 5795 5793 5792 5790 5789 5788 5787 5786 5784 5781 5778 5776 5776 5775 5773 5771 5770 5768 5767 5765 5764 5763 5761 5760 5758 5757 5755 5753 5751 5749 5747 5746 5744 5742 5740 5738 5736 5734 5732 5729 5727 5725 5723 5721 5719 5716 5714 5711 5709
5770 5773 5777 5780 5783 5785 5788 5790 5792 5794 5795 5796 5797 5798 5798 5799 5799 5800 5800 5799 5798 5798 5798 5798 5798 5798 5798 5797 5797 5796 5796 5795 5794 5793 5792 5790 5789 5787 5786 5785 5784 5783 5782 5781 5779 5776 5773 5771 5770 5769 5767 5765 5764 5763 5762 5759 5758 5756 5755 5754 5752 5751 5749 5747 5745 5743 5742 5741 5738 5736 5734 5732 5730 5727 5725 5723 5721 5719 5717 5714 5712 5709 5707 5704 5702
5766 5769 5772 5775 5778 5780 5783 5785 5787 5788 5789 5791 5792 5793 5794 5794 5795 5796 5796 5796 5795 5794 5794 5794 5793 5793 5792 5792 5791 5790 5790 5789 5788 5787 5786 5785 5783 5782 5780 5779 5778 5777 5776 5775 5774 5771 5769 5767 5766 5764 5761 5759 5757 5756 5756 5754 5752 5750 5749 5747 5746 5745 5743 5741 5740 5738 5737 5735 5733 5731 5728 5726 5724 5721 5719 5717 5716 5713 5711 5708 5706 5704 5701 5699 5697
5760 5763 5766 5769 5772 5774 5777 5779 5781 5782 5783 5785 5786 5788 5789 5790 5790 5791 5791 5790 5789 5789 5789 5788 5787 5788 5787 5786 5785 5785 5784 5784 5782 5781 5780 5779 5777 5776 5775 5774 5772 5771 5771 5769 5768 5767 5765 5764 5762 5760 5757 5754 5751 5750 5750 5748 5746 5744 5743 5741 5740 5739 5738 5736 5734 5732 5731 5729 5727 5725 5722 5720 5718 5715 5712 5710 5709 5707 5704 5702 5699 5698 5696 5693 5692
5755 5757 5760 5763 5766 5768 5771 5773 5774 5776 5777 5779 5781 5782 5783 5784 5785 5785 5785 5784 5783 5782 5782 5781 5781 5782 5781 5780 5780 5779 5779 5778 5776 5775 5774 5773 5772 5771 5770 5768 5767 5766 5765 5764 5763 5761 5760 5759 5758 5756 5753 5750 5747 5746 5744 5742 5739 5738 5737 5736 5735 5734 5733 5731 5729 5726 5724 5722 5720 5718 5716 5713 5711 5708 5705 5703 5701 5699 5697 5695 5693 5691 5689 5687 5686